• In Czech Republic
  • List of Countries
  • For 7 days
  • Water Temperature
  • Satellite Maps
  • Weather Map
  • Weather Widgets
  • user-avatar
    Login

    Hourly Weather Zasuv

    Today, 23 October, Tuesday

    Time Temperature Precipitation Wind Pressure Humidity
    00:00 +3°C° 0 mm 3 mps 743 mmHg 80%
    01:00 +3°C° 0 mm 3 mps 743 mmHg 82%
    02:00 +4°C° 0 mm 2 mps 742 mmHg 86%
    03:00 +3°C° 0.1 mm 3 mps 742 mmHg 86%
    04:00 +4°C° 0.1 mm 3 mps 741 mmHg 85%
    05:00 +5°C° 0.1 mm 4 mps 741 mmHg 84%
    06:00 +5°C° 0 mm 4 mps 741 mmHg 85%
    07:00 +5°C° 0 mm 5 mps 741 mmHg 86%
    08:00 +5°C° 0 mm 5 mps 740 mmHg 88%
    09:00 +6°C° 0 mm 5 mps 740 mmHg 82%
    10:00 +5°C° 0 mm 6 mps 740 mmHg 76%
    11:00 +7°C° 0 mm 6 mps 739 mmHg 70%
    12:00 +7°C° 0 mm 6 mps 738 mmHg 66%
    13:00 +8°C° 0 mm 7 mps 737 mmHg 61%
    14:00 +8°C° 0 mm 7 mps 736 mmHg 56%
    15:00 +8°C° 0.2 mm 7 mps 735 mmHg 60%
    16:00 +7°C° 0.2 mm 6 mps 734 mmHg 64%
    17:00 +7°C° 0.2 mm 6 mps 732 mmHg 67%
    18:00 +6°C° 0.9 mm 7 mps 731 mmHg 71%
    19:00 +6°C° 0.9 mm 8 mps 730 mmHg 75%
    20:00 +6°C° 0.9 mm 8 mps 729 mmHg 79%
    21:00 +6°C° 0.7 mm 9 mps 728 mmHg 80%
    22:00 +6°C° 0.7 mm 9 mps 727 mmHg 80%
    23:00 +5°C° 0.7 mm 9 mps 726 mmHg 80%

    Tomorrow, 24 October, Wednesday

    Time Temperature Precipitation Wind Pressure Humidity
    00:00 +6°C° 1.2 mm 9 mps 725 mmHg 82%
    01:00 +6°C° 1.2 mm 9 mps 724 mmHg 84%
    02:00 +6°C° 1.2 mm 9 mps 723 mmHg 86%
    03:00 +6°C° 0.5 mm 8 mps 722 mmHg 84%
    04:00 +5°C° 0.5 mm 8 mps 721 mmHg 82%
    05:00 +5°C° 0.5 mm 8 mps 721 mmHg 80%
    06:00 +5°C° 0.3 mm 8 mps 721 mmHg 80%
    07:00 +3°C° 0.3 mm 9 mps 721 mmHg 79%
    08:00 +3°C° 0.3 mm 9 mps 721 mmHg 79%
    09:00 +4°C° 0.5 mm 8 mps 721 mmHg 78%
    10:00 +4°C° 0.5 mm 8 mps 721 mmHg 77%
    11:00 +4°C° 0.5 mm 8 mps 722 mmHg 76%
    12:00 +4°C° 0.3 mm 8 mps 722 mmHg 72%
    13:00 +5°C° 0.3 mm 9 mps 723 mmHg 67%
    14:00 +5°C° 0.3 mm 10 mps 723 mmHg 62%
    15:00 +3°C° 0.2 mm 10 mps 723 mmHg 65%
    16:00 +2°C° 0.2 mm 10 mps 723 mmHg 67%
    17:00 +1°C° 0.2 mm 10 mps 724 mmHg 70%
    18:00 +2°C° 0.6 mm 10 mps 724 mmHg 71%
    19:00 +2°C° 0.6 mm 11 mps 724 mmHg 73%
    20:00 +2°C° 0.6 mm 12 mps 724 mmHg 75%
    21:00 +2°C° 0.6 mm 12 mps 724 mmHg 76%
    22:00 +2°C° 0.6 mm 11 mps 725 mmHg 78%
    23:00 +2°C° 0.6 mm 11 mps 726 mmHg 79%

    Day after tomorrow, 25 October, Thursday

    Time Temperature Precipitation Wind Pressure Humidity
    00:00 +2°C° 0.4 mm 11 mps 726 mmHg 78%
    01:00 +2°C° 0.4 mm 11 mps 727 mmHg 77%
    02:00 +2°C° 0.4 mm 10 mps 728 mmHg 77%
    03:00 +2°C° 0.1 mm 10 mps 729 mmHg 77%
    04:00 +2°C° 0.1 mm 10 mps 729 mmHg 77%
    05:00 +1°C° 0.1 mm 9 mps 730 mmHg 77%
    06:00 +1°C° 0 mm 9 mps 730 mmHg 77%
    07:00 +1°C° 0 mm 9 mps 731 mmHg 78%
    08:00 +1°C° 0 mm 8 mps 731 mmHg 78%
    09:00 +1°C° 0 mm 8 mps 732 mmHg 75%
    10:00 +2°C° 0 mm 8 mps 732 mmHg 72%
    11:00 +2°C° 0 mm 8 mps 732 mmHg 70%
    12:00 +4°C° 0 mm 8 mps 731 mmHg 68%
    13:00 +4°C° 0 mm 8 mps 731 mmHg 66%
    14:00 +4°C° 0 mm 8 mps 731 mmHg 65%
    15:00 +4°C° 0.3 mm 8 mps 730 mmHg 70%
    16:00 +3°C° 0.3 mm 7 mps 729 mmHg 75%
    17:00 +2°C° 0.3 mm 7 mps 728 mmHg 80%
    18:00 +4°C° 0.7 mm 8 mps 728 mmHg 81%
    19:00 +5°C° 0.7 mm 8 mps 728 mmHg 82%
    20:00 +6°C° 0.7 mm 9 mps 727 mmHg 83%
    21:00 +6°C° 0.1 mm 8 mps 727 mmHg 82%
    22:00 +5°C° 0.1 mm 8 mps 727 mmHg 81%
    23:00 +5°C° 0.1 mm 8 mps 728 mmHg 81%

    26 October, Friday

    Time Temperature Precipitation Wind Pressure Humidity
    00:00 +4°C° 0 mm 8 mps 728 mmHg 82%
    01:00 +4°C° 0 mm 8 mps 729 mmHg 82%
    02:00 +4°C° 0 mm 8 mps 730 mmHg 83%
    03:00 +4°C° 0 mm 7 mps 730 mmHg 84%
    04:00 +4°C° 0 mm 7 mps 731 mmHg 86%
    05:00 +3°C° 0 mm 6 mps 732 mmHg 87%
    06:00 +3°C° 0 mm 6 mps 732 mmHg 87%
    07:00 +3°C° 0 mm 6 mps 733 mmHg 87%
    08:00 +3°C° 0 mm 6 mps 733 mmHg 88%
    09:00 +4°C° 0 mm 6 mps 733 mmHg 84%
    10:00 +5°C° 0 mm 6 mps 733 mmHg 80%
    11:00 +7°C° 0 mm 6 mps 734 mmHg 76%
    12:00 +7°C° 0 mm 6 mps 734 mmHg 73%
    13:00 +8°C° 0 mm 6 mps 734 mmHg 69%
    14:00 +8°C° 0 mm 6 mps 734 mmHg 66%
    15:00 +8°C° 0 mm 5 mps 734 mmHg 69%
    16:00 +7°C° 0 mm 4 mps 734 mmHg 73%
    17:00 +7°C° 0 mm 3 mps 734 mmHg 76%
    18:00 +7°C° 0 mm 3 mps 733 mmHg 78%
    19:00 +7°C° 0 mm 3 mps 733 mmHg 79%
    20:00 +7°C° 0 mm 3 mps 733 mmHg 81%
    21:00 +6°C° 0 mm 4 mps 733 mmHg 82%
    22:00 +7°C° 0 mm 4 mps 733 mmHg 83%
    23:00 +7°C° 0 mm 5 mps 732 mmHg 84%

    27 October, Saturday

    Time Temperature Precipitation Wind Pressure Humidity
    00:00 +7°C° 0 mm 5 mps 732 mmHg 84%
    01:00 +7°C° 0 mm 5 mps 732 mmHg 85%
    02:00 +7°C° 0 mm 5 mps 732 mmHg 86%
    03:00 +7°C° 0 mm 5 mps 731 mmHg 86%
    04:00 +7°C° 0 mm 5 mps 731 mmHg 87%
    05:00 +7°C° 0 mm 5 mps 731 mmHg 87%
    06:00 +7°C° 0 mm 5 mps 731 mmHg 87%
    07:00 +7°C° 0 mm 4 mps 732 mmHg 87%
    08:00 +7°C° 0 mm 4 mps 732 mmHg 87%
    09:00 +8°C° 0 mm 5 mps 732 mmHg 79%
    10:00 +9°C° 0 mm 6 mps 732 mmHg 71%
    11:00 +10°C° 0 mm 6 mps 733 mmHg 64%
    12:00 +10°C° 0 mm 6 mps 733 mmHg 61%
    13:00 +10°C° 0 mm 6 mps 733 mmHg 59%
    14:00 +10°C° 0 mm 6 mps 733 mmHg 56%
    15:00 +9°C° 0 mm 5 mps 733 mmHg 58%
    16:00 +8°C° 0 mm 4 mps 734 mmHg 60%
    17:00 +9°C° 0 mm 3 mps 734 mmHg 61%
    18:00 +8°C° 0 mm 3 mps 734 mmHg 62%
    19:00 +8°C° 0 mm 2 mps 735 mmHg 64%
    20:00 +7°C° 0 mm 2 mps 735 mmHg 65%
    21:00 +8°C° 0.3 mm 1 mps 735 mmHg 68%
    22:00 +8°C° 0.3 mm 1 mps 736 mmHg 70%
    23:00 +7°C° 0.3 mm 1 mps 736 mmHg 73%

    28 October, Sunday

    Time Temperature Precipitation Wind Pressure Humidity
    00:00 +7°C° 0.3 mm 1 mps 736 mmHg 75%
    01:00 +7°C° 0.3 mm 1 mps 737 mmHg 77%
    02:00 +6°C° 0.3 mm 0 mps 737 mmHg 80%
    03:00 +7°C° 0.3 mm 1 mps 737 mmHg 81%
    04:00 +6°C° 0.3 mm 2 mps 737 mmHg 82%
    05:00 +5°C° 0.3 mm 2 mps 737 mmHg 83%
    06:00 +4°C° 0.4 mm 3 mps 737 mmHg 84%
    07:00 +4°C° 0.4 mm 3 mps 737 mmHg 85%
    08:00 +4°C° 0.4 mm 3 mps 737 mmHg 86%
    09:00 +4°C° 0.2 mm 4 mps 737 mmHg 85%
    10:00 +5°C° 0.2 mm 4 mps 737 mmHg 84%
    11:00 +5°C° 0.2 mm 5 mps 737 mmHg 84%
    12:00 +5°C° 0.2 mm 5 mps 737 mmHg 84%
    13:00 +6°C° 0.2 mm 5 mps 736 mmHg 84%
    14:00 +6°C° 0.2 mm 5 mps 736 mmHg 83%
    15:00 +7°C° 0.4 mm 4 mps 735 mmHg 85%
    16:00 +7°C° 0.4 mm 4 mps 735 mmHg 86%
    17:00 +7°C° 0.4 mm 4 mps 735 mmHg 87%
    18:00 +8°C° 0.5 mm 4 mps 735 mmHg 88%
    19:00 +8°C° 0.5 mm 4 mps 734 mmHg 88%
    20:00 +10°C° 0.5 mm 4 mps 734 mmHg 89%
    21:00 +10°C° 0 mm 4 mps 734 mmHg 87%
    22:00 +11°C° 0 mm 4 mps 734 mmHg 86%
    23:00 +11°C° 0 mm 4 mps 734 mmHg 84%

    29 October, Monday

    Time Temperature Precipitation Wind Pressure Humidity
    00:00 +11°C° 0 mm 3 mps 734 mmHg 85%
    01:00 +10°C° 0 mm 3 mps 734 mmHg 86%
    02:00 +10°C° 0 mm 3 mps 733 mmHg 87%
    03:00 +10°C° 0 mm 3 mps 733 mmHg 86%
    04:00 +10°C° 0 mm 3 mps 733 mmHg 85%
    05:00 +10°C° 0 mm 3 mps 733 mmHg 84%
    06:00 +11°C° 0 mm 3 mps 733 mmHg 81%
    07:00 +11°C° 0 mm 3 mps 733 mmHg 79%
    08:00 +11°C° 0 mm 4 mps 733 mmHg 76%
    09:00 +13°C° 0 mm 4 mps 732 mmHg 70%
    10:00 +15°C° 0 mm 5 mps 732 mmHg 65%
    11:00 +16°C° 0 mm 5 mps 732 mmHg 59%
    12:00 +17°C° 0 mm 5 mps 732 mmHg 60%
    13:00 +17°C° 0 mm 5 mps 731 mmHg 60%
    14:00 +19°C° 0 mm 5 mps 731 mmHg 61%
    15:00 +17°C° 0 mm 5 mps 731 mmHg 66%
    16:00 +15°C° 0 mm 4 mps 731 mmHg 70%
    17:00 +14°C° 0 mm 4 mps 731 mmHg 75%
    18:00 +14°C° 0 mm 4 mps 731 mmHg 75%
    19:00 +14°C° 0 mm 3 mps 731 mmHg 76%
    20:00 +13°C° 0 mm 3 mps 731 mmHg 76%
    21:00 +13°C° 0 mm 3 mps 731 mmHg 76%
    22:00 +14°C° 0 mm 2 mps 731 mmHg 76%
    23:00 +14°C° 0 mm 2 mps 731 mmHg 76%
    Show more